Defiance, OH

11:46 PM EDT on May 22, 2018 (GMT -0400)
Defiance Memorial

Weather History for KDFI - December, 2012

Change the Weather History Date:

Saturday, December 29, 2012

  Actual Average Record
Temperature  
Mean Temperature 28 °F -  
Max Temperature 30 °F 34 °F 64 °F (1984)
Min Temperature 26 °F 17 °F -9 °F (1950)
Degree Days  
Heating Degree Days 37    
Moisture  
Dew Point 26 °F    
Average Humidity 87    
Maximum Humidity 93    
Minimum Humidity 80    
Precipitation  
Precipitation 0.16 in - - ()
Sea Level Pressure  
Sea Level Pressure 29.90 in    
Wind  
Wind Speed 4 mph (North)    
Max Wind Speed 8 mph    
Max Gust Speed -    
Visibility 3 miles    
Events Snow    
Averages and records for this station are not official NWS values.
T = Trace of Precipitation, MM = Missing Value Source: NWS Daily Summary

Daily Weather History Graph

Daily Weather History Graph

Search for Another Location

Airport or City:

Astronomy

Dec. 29, 2012 Rise Set
Actual Time 8:03 AM EST 5:16 PM EST
Civil Twilight 7:32 AM EST 5:48 PM EST
Nautical Twilight 6:57 AM EST 6:22 PM EST
Astronomical Twilight 6:23 AM EST 6:56 PM EST
Moon 6:50 PM EST (12/29) 8:35 AM EST (12/29)
Length of Visible Light 10h 16m
Length of Day
9h 13m
Full, 98% of the Moon is Illuminated
Dec 29
Full
Jan 4
Last Quarter
Jan 11
New
Jan 18
First Quarter
Jan 26
Full

Hourly Weather History & Observations

Time (EST) Temp. Windchill Dew Point Humidity Pressure Visibility Wind Dir Wind Speed Gust Speed Precip Events Conditions
12:16 AM 28.4 °F 24.6 °F 26.6 °F 93% 29.89 in 1.2 mi ENE 3.5 mph - 0.01 in Snow Light Snow
12:53 AM 28.0 °F 22.8 °F 26.1 °F 92% 29.89 in 1.0 mi ENE 4.6 mph - 0.02 in Snow Light Snow
1:29 AM 28.4 °F 22.2 °F 24.8 °F 86% 29.85 in 0.8 mi ENE 5.8 mph - 0.02 in Snow Light Snow
1:36 AM 28.4 °F 23.3 °F 24.8 °F 86% 29.85 in 1.0 mi ENE 4.6 mph - 0.02 in Snow Light Snow
1:53 AM 28.0 °F 24.2 °F 25.0 °F 88% 29.86 in 1.0 mi NE 3.5 mph - 0.03 in Snow Light Snow
2:00 AM 28.4 °F 23.3 °F 24.8 °F 86% 29.84 in 0.8 mi ENE 4.6 mph - 0.00 in Snow Light Snow
2:07 AM 28.4 °F 23.3 °F 24.8 °F 86% 29.83 in 1.0 mi NE 4.6 mph - 0.01 in Snow Light Snow
2:32 AM 28.4 °F 23.3 °F 24.8 °F 86% 29.83 in 1.2 mi ENE 4.6 mph - 0.02 in Snow Light Snow
2:49 AM 28.4 °F 23.3 °F 24.8 °F 86% 29.83 in 0.8 mi ENE 4.6 mph - 0.02 in Snow Light Snow
2:53 AM 28.0 °F 24.2 °F 25.0 °F 88% 29.86 in 0.8 mi NE 3.5 mph - 0.03 in Snow Light Snow
3:06 AM 28.4 °F 23.3 °F 24.8 °F 86% 29.83 in 1.0 mi NNE 4.6 mph - 0.00 in Snow Light Snow
3:38 AM 26.6 °F 21.2 °F 24.8 °F 93% 29.83 in 0.8 mi NE 4.6 mph - 0.02 in Snow Light Snow
3:53 AM 27.0 °F 20.5 °F 25.0 °F 92% 29.85 in 1.0 mi NE 5.8 mph - 0.03 in Snow Light Snow
4:18 AM 26.6 °F 21.2 °F 24.8 °F 93% 29.82 in 0.8 mi NE 4.6 mph - 0.01 in Snow Light Snow
4:27 AM 26.6 °F 22.6 °F 24.8 °F 93% 29.81 in 1.0 mi NNE 3.5 mph - 0.01 in Snow Light Snow
4:53 AM 28.0 °F 21.7 °F 25.0 °F 88% 29.83 in 1.2 mi NNE 5.8 mph - 0.02 in Snow Light Snow
5:53 AM 28.0 °F 22.8 °F 26.1 °F 92% 29.83 in 1.2 mi North 4.6 mph - 0.01 in Snow Light Snow
6:53 AM 28.0 °F 21.7 °F 25.0 °F 88% 29.83 in 1.8 mi North 5.8 mph - 0.01 in Snow Light Snow
7:33 AM 28.4 °F 22.2 °F 24.8 °F 86% 29.80 in 2.0 mi North 5.8 mph - 0.00 in Snow Light Snow
7:40 AM 28.4 °F 22.2 °F 24.8 °F 86% 29.80 in 2.5 mi North 5.8 mph - 0.00 in Snow Light Snow
7:53 AM 28.0 °F 20.8 °F 25.0 °F 88% 29.83 in 2.5 mi North 6.9 mph - 0.00 in Snow Light Snow
8:01 AM 28.4 °F 21.2 °F 24.8 °F 86% 29.80 in 2.0 mi North 6.9 mph - 0.00 in Snow Light Snow
8:26 AM 28.4 °F 22.2 °F 24.8 °F 86% 29.80 in 2.5 mi North 5.8 mph - 0.00 in Snow Light Snow
8:34 AM 26.6 °F 20.0 °F 24.8 °F 93% 29.80 in 2.0 mi NNW 5.8 mph - 0.00 in Snow Light Snow
8:51 AM 28.4 °F 21.2 °F 24.8 °F 86% 29.81 in 3.0 mi NNW 6.9 mph - 0.00 in   Overcast
8:53 AM 28.0 °F 20.8 °F 25.0 °F 88% 29.84 in 3.0 mi NNW 6.9 mph - 0.00 in   Overcast
9:20 AM 28.4 °F 21.2 °F 26.6 °F 93% 29.82 in 3.0 mi NNW 6.9 mph - N/A   Overcast
9:53 AM 28.9 °F 21.9 °F 26.1 °F 89% 29.86 in 4.0 mi NNW 6.9 mph - N/A   Overcast
10:53 AM 30.0 °F 23.2 °F 25.0 °F 82% 29.88 in 5.0 mi NNW 6.9 mph - N/A   Haze
11:53 AM 30.0 °F 22.4 °F 25.0 °F 82% 29.88 in 5.0 mi NW 8.1 mph - N/A   Haze
12:15 PM 30.2 °F 23.4 °F 24.8 °F 80% 29.85 in 5.0 mi NW 6.9 mph - N/A   Haze
12:27 PM 30.2 °F 23.4 °F 24.8 °F 80% 29.85 in 5.0 mi NW 6.9 mph - N/A   Haze
12:53 PM 30.0 °F - 25.0 °F 82% 29.88 in 4.0 mi Calm Calm - N/A   Haze
1:11 PM 30.2 °F 26.7 °F 26.6 °F 86% 29.85 in 2.5 mi WNW 3.5 mph - N/A   Overcast
1:28 PM 30.2 °F 26.7 °F 24.8 °F 80% 29.85 in 2.5 mi Variable 3.5 mph - N/A   Haze
1:50 PM 28.4 °F 24.6 °F 26.6 °F 93% 29.86 in 2.0 mi Variable 3.5 mph - N/A   Overcast
1:53 PM 30.0 °F - 26.1 °F 85% 29.88 in 2.0 mi Calm Calm - N/A   Overcast
2:03 PM 30.2 °F 25.4 °F 26.6 °F 86% 29.86 in 3.0 mi WNW 4.6 mph - N/A   Overcast
2:53 PM 30.0 °F 25.2 °F 26.1 °F 85% 29.89 in 3.0 mi NW 4.6 mph - 0.00 in Snow Light Snow
3:23 PM 30.2 °F - 26.6 °F 86% 29.88 in 3.0 mi Calm Calm - 0.00 in Snow Light Snow
3:31 PM 30.2 °F 26.7 °F 26.6 °F 86% 29.89 in 2.5 mi WNW 3.5 mph - 0.00 in Snow Light Snow
3:51 PM 30.2 °F - 26.6 °F 86% 29.89 in 2.5 mi Calm Calm - 0.00 in Snow Light Snow
3:53 PM 30.0 °F - 26.1 °F 85% 29.92 in 2.5 mi Calm Calm - 0.00 in Snow Light Snow
4:08 PM 30.2 °F 26.7 °F 26.6 °F 86% 29.90 in 2.5 mi Variable 3.5 mph - 0.00 in Snow Light Snow
4:19 PM 30.2 °F 26.7 °F 26.6 °F 86% 29.91 in 1.8 mi Variable 3.5 mph - 0.00 in Snow Light Snow
4:37 PM 30.2 °F - 26.6 °F 86% 29.92 in 1.0 mi Calm Calm - 0.00 in Snow Light Snow
4:53 PM 30.0 °F - 26.1 °F 85% 29.95 in 1.5 mi Calm Calm - 0.00 in Snow Light Snow
5:11 PM 30.2 °F 26.7 °F 26.6 °F 86% 29.93 in 2.0 mi Variable 3.5 mph - 0.00 in Snow Light Snow
5:18 PM 30.2 °F 26.7 °F 26.6 °F 86% 29.93 in 2.5 mi WNW 3.5 mph - 0.00 in Snow Light Snow
5:33 PM 30.2 °F - 26.6 °F 86% 29.94 in 4.0 mi Calm Calm - 0.00 in   Overcast
5:59 PM 30.2 °F - 26.6 °F 86% 29.95 in 2.0 mi Calm Calm - 0.00 in Snow Light Snow
6:08 PM 30.2 °F 25.4 °F 26.6 °F 86% 29.96 in 1.8 mi WNW 4.6 mph - 0.00 in Snow Light Snow
6:15 PM 28.4 °F - 26.6 °F 93% 29.96 in 2.0 mi Calm Calm - 0.00 in Snow Light Snow
6:22 PM 28.4 °F 24.6 °F 26.6 °F 93% 29.96 in 2.5 mi Variable 3.5 mph - 0.00 in Snow Light Snow
6:45 PM 28.4 °F 23.3 °F 26.6 °F 93% 29.98 in 1.8 mi WNW 4.6 mph - 0.00 in Snow Light Snow
6:53 PM 28.9 °F 22.8 °F 26.1 °F 89% 30.01 in 2.0 mi NW 5.8 mph - 0.01 in Snow Light Snow
7:13 PM 28.4 °F 23.3 °F 26.6 °F 93% 29.99 in 2.5 mi NW 4.6 mph - 0.00 in Snow Light Snow
7:24 PM 28.4 °F 24.6 °F 26.6 °F 93% 29.99 in 3.0 mi WNW 3.5 mph - 0.00 in Snow Light Snow
7:53 PM 28.0 °F - 26.1 °F 92% 30.03 in 4.0 mi Calm Calm - 0.00 in   Overcast
8:53 PM 28.9 °F 25.2 °F 25.0 °F 85% 30.06 in 5.0 mi WNW 3.5 mph - 0.00 in   Overcast
9:07 PM 28.4 °F 24.6 °F 24.8 °F 86% 30.03 in 5.0 mi WNW 3.5 mph - N/A   Overcast
9:53 PM 28.9 °F 25.2 °F 25.0 °F 85% 30.09 in 6.0 mi Variable 3.5 mph - N/A   Overcast
10:41 PM 28.4 °F - 24.8 °F 86% 30.07 in 8.0 mi Calm Calm - N/A   Overcast
10:53 PM 28.0 °F 24.2 °F 24.1 °F 85% 30.11 in 8.0 mi Variable 3.5 mph - N/A   Overcast
11:53 PM 26.1 °F 21.9 °F 21.9 °F 84% 30.14 in 5.0 mi Variable 3.5 mph - N/A   Clear